"Timestamp","TZ","WindDir_Mean (deg)","WindSpd_Mean (km/h)","WindSpd_Min (km/h)","WindSpd_Max (km/h)","Temp_Mean (deg)","RH_Mean (%)","MSLP_Mean (hPa)","Rain_Acc (mm)","Rain_Intensity (mm/h)","Hail_Acc (hits/cm2)","Hail_Intensity (hits/cm2hr)","Solar_Mean (W/m2)"
2021/06/08 00:00:00.006,n,254,2.16,0.72,2.52,13.1,83.6,1022.32,0,0,0,0,0.028725
2021/06/08 00:01:00.000,n,238,1.8,1.44,1.8,13.1,83.2,1022.32,0,0,0,0,0.02697
2021/06/08 00:02:00.000,n,267,2.16,1.8,2.52,13.1,83,1022.22,0,0,0,0,0.028725
2021/06/08 00:03:00.000,n,135,0.72,0.36,1.08,13.1,82.9,1022.22,0,0,0,0,0.032196
2021/06/08 00:04:00.000,n,196,1.08,0.72,1.44,13.1,83.1,1022.22,0,0,0,0,0.027847
2021/06/08 00:05:00.000,n,345,1.08,0.72,2.52,13.1,82.8,1022.22,0,0,0,0,0.032196
2021/06/08 00:06:00.005,n,105,0.36,0.36,0.72,13.1,82.8,1022.22,0,0,0,0,0.028725
2021/06/08 00:07:00.004,n,113,1.08,1.08,1.44,13.1,82.6,1022.22,0,0,0,0,0.033112
2021/06/08 00:08:00.000,n,82,0.72,0.36,1.08,13.1,82.7,1022.22,0,0,0,0,0.030479
2021/06/08 00:09:00.014,n,195,1.8,1.08,2.52,13,82.5,1022.22,0,0,0,0,0.033112
2021/06/08 00:10:00.000,n,291,2.16,1.8,2.88,13,82.6,1022.22,0,0,0,0,0.030479
2021/06/08 00:11:00.000,n,136,0.72,0.36,0.72,13,82.6,1022.22,0,0,0,0,0.031319
2021/06/08 00:12:00.005,n,95,0.36,0.36,0.72,13,82.5,1022.22,0,0,0,0,0.031319
2021/06/08 00:13:00.002,n,326,1.08,0.36,1.44,13,82.4,1022.22,0,0,0,0,0.028725
2021/06/08 00:14:00.000,n,129,1.44,0.72,1.8,13,82.4,1022.22,0,0,0,0,0.032196
2021/06/08 00:15:00.000,n,330,0.36,0.36,0.72,13,82.4,1022.22,0,0,0,0,0.031319
2021/06/08 00:16:00.009,n,277,1.8,1.44,2.16,12.9,82.4,1022.22,0,0,0,0,0.032196
2021/06/08 00:17:00.006,n,14,1.8,0.72,2.16,12.9,82.5,1022.22,0,0,0,0,0.030479
2021/06/08 00:18:00.005,n,174,0.72,0.36,0.72,12.9,82.6,1022.22,0,0,0,0,0.026131
2021/06/08 00:19:00.000,n,284,3.24,3.24,3.6,12.9,82.5,1022.22,0,0,0,0,0.026131
2021/06/08 00:20:00.000,n,294,2.52,1.8,2.88,12.9,82.4,1022.22,0,0,0,0,0.02697
2021/06/08 00:21:00.000,n,255,0.36,0.36,0.72,12.9,82.4,1022.22,0,0,0,0,0.027847
2021/06/08 00:22:00.000,n,248,0.72,0,1.44,12.8,82.3,1022.22,0,0,0,0,0.029602
2021/06/08 00:23:00.000,n,353,1.08,0.72,1.8,12.8,82.5,1022.22,0,0,0,0,0.025253
2021/06/08 00:24:00.006,n,89,1.08,0.36,1.44,12.8,82.5,1022.22,0,0,0,0,0.027847
2021/06/08 00:25:00.003,n,44,1.44,0.72,2.16,12.8,82.3,1022.22,0,0,0,0,0.029602
2021/06/08 00:26:00.000,n,295,1.8,1.44,2.16,12.8,82.3,1022.22,0,0,0,0,0.028725
2021/06/08 00:27:00.014,n,234,1.8,0.72,2.16,12.8,82.6,1022.22,0,0,0,0,0.025253
2021/06/08 00:28:00.000,n,196,1.08,1.08,1.08,12.8,82.4,1022.22,0,0,0,0,0.024376
2021/06/08 00:29:00.000,n,257,1.08,0.36,1.8,12.8,82.3,1022.22,0,0,0,0,0.023499
2021/06/08 00:30:00.000,n,175,2.88,1.8,4.32,12.7,82.3,1022.22,0,0,0,0,0.028725
2021/06/08 00:31:00.004,n,178,0.72,0.36,1.08,12.7,82.6,1022.22,0,0,0,0,0.025253
2021/06/08 00:32:00.001,n,136,1.8,0.36,2.52,12.7,82.5,1022.22,0,0,0,0,0.025253
2021/06/08 00:33:00.000,n,141,1.08,0.72,1.08,12.7,82.5,1022.22,0,0,0,0,0.022621
2021/06/08 00:34:00.011,n,248,2.52,1.08,3.6,12.7,82.7,1022.32,0,0,0,0,0.021744
2021/06/08 00:35:00.008,n,277,3.24,1.44,4.68,12.8,82.6,1022.22,0,0,0,0,0.023499
2021/06/08 00:36:00.006,n,283,3.96,3.6,4.32,12.8,82.5,1022.22,0,0,0,0,0.018272
2021/06/08 00:37:00.000,n,109,1.08,0.36,1.44,12.8,82.4,1022.22,0,0,0,0,0.024376
2021/06/08 00:38:00.001,n,172,1.44,1.08,1.44,12.7,82.4,1022.22,0,0,0,0,0.025253
2021/06/08 00:39:00.000,n,184,0.72,0.72,0.72,12.7,82.3,1022.22,0,0,0,0,0.019989
2021/06/08 00:40:00.000,n,242,1.08,0.36,1.44,12.7,82.3,1022.22,0,0,0,0,0.026131
2021/06/08 00:41:00.000,n,186,0.36,0,0.72,12.7,82.5,1022.22,0,0,0,0,0.022621
2021/06/08 00:42:00.007,n,224,2.88,2.88,3.24,12.7,82.3,1022.22,0,0,0,0,0.017395
2021/06/08 00:43:00.005,n,240,3.24,2.88,3.6,12.7,82.3,1022.22,0,0,0,0,0.018272
2021/06/08 00:44:00.002,n,252,3.96,3.6,4.32,12.7,82.3,1022.22,0,0,0,0,0.01915
2021/06/08 00:45:00.015,n,183,1.08,0.36,1.8,12.6,82.5,1022.22,0,0,0,0,0.016556
2021/06/08 00:46:00.000,n,326,1.08,0.72,1.08,12.6,82.6,1022.22,0,0,0,0,0.019989
2021/06/08 00:47:00.000,n,277,2.88,2.16,3.24,12.6,82.5,1022.22,0,0,0,0,0.019989
2021/06/08 00:48:00.000,n,192,1.44,1.08,2.16,12.6,82.5,1022.22,0,0,0,0,0.01564
2021/06/08 00:49:00.006,n,241,1.8,1.44,4.32,12.6,82.6,1022.22,0,0,0,0,0.019989
2021/06/08 00:50:00.003,n,125,1.08,0.72,1.8,12.6,82.5,1022.22,0,0,0,0,0.016556
2021/06/08 00:51:00.000,n,99,1.44,0.72,1.8,12.6,82.5,1022.22,0,0,0,0,0.013046
2021/06/08 00:52:00.000,n,162,2.16,0.36,3.24,12.6,82.5,1022.22,0,0,0,0,0.016556
2021/06/08 00:53:00.010,n,227,0.72,0.36,1.44,12.6,82.6,1022.22,0,0,0,0,0.032234
2021/06/08 00:54:00.003,n,142,2.88,1.08,4.32,12.6,82.6,1022.22,0,0,0,0,0.033989
2021/06/08 00:55:00.000,n,356,1.08,0.36,2.52,12.6,82.7,1022.22,0,0,0,0,0.030518
2021/06/08 00:56:00.000,n,267,1.44,1.08,2.16,12.6,82.7,1022.22,0,0,0,0,0.030518
2021/06/08 00:57:00.000,n,358,2.88,2.16,3.6,12.6,82.7,1022.22,0,0,0,0,0.033989
2021/06/08 00:58:00.006,n,273,2.52,0.72,3.96,12.6,82.7,1022.22,0,0,0,0,0.027885
2021/06/08 00:59:00.004,n,313,0.36,0.36,0.72,12.6,82.6,1022.22,0,0,0,0,0.034866
2021/06/08 01:00:00.000,n,138,1.8,1.8,2.16,12.5,82.6,1022.22,0,0,0,0,0.030518
2021/06/08 01:01:00.000,n,283,3.6,2.16,3.96,12.5,82.6,1022.22,0,0,0,0,0.02964
2021/06/08 01:02:00.011,n,303,3.6,3.24,4.32,12.5,82.6,1022.12,0,0,0,0,0.033112
2021/06/08 01:03:00.009,n,268,1.08,0.36,1.8,12.5,82.5,1022.12,0,0,0,0,0.032234
2021/06/08 01:04:00.000,n,230,2.52,2.16,3.24,12.5,82.6,1022.12,0,0,0,0,0.028763
2021/06/08 01:05:00.003,n,248,3.6,3.24,5.04,12.5,82.6,1022.12,0,0,0,0,0.027008
2021/06/08 01:06:00.000,n,308,2.16,1.8,2.52,12.5,82.6,1022.12,0,0,0,0,0.026169
2021/06/08 01:07:00.000,n,247,3.24,2.88,3.6,12.5,82.5,1022.12,0,0,0,0,0.020905
2021/06/08 01:08:00.000,n,146,1.8,1.44,2.16,12.4,82.6,1022.12,0,0,0,0,0.025291
2021/06/08 01:09:00.007,n,143,2.52,1.44,3.24,12.4,82.7,1022.12,0,0,0,0,0.025291
2021/06/08 01:10:00.005,n,130,2.16,0.36,4.32,12.5,83.1,1022.12,0,0,0,0,0.022659
2021/06/08 01:11:00.001,n,95,0.72,0.36,0.72,12.5,82.7,1022.12,0,0,0,0,0.026169
2021/06/08 01:12:00.015,n,148,2.88,2.88,3.24,12.4,82.7,1022.12,0,0,0,0,0.028763
2021/06/08 01:13:00.000,n,161,5.76,3.24,7.56,12.4,82.7,1022.12,0,0,0,0,0.025291
2021/06/08 01:14:00.000,n,218,1.8,0.72,2.52,12.4,82.7,1022.12,0,0,0,0,0.027008
2021/06/08 01:15:00.000,n,271,5.04,4.32,6.12,12.4,82.6,1022.12,0,0,0,0,0.024414
2021/06/08 01:16:00.005,n,273,2.88,2.88,3.24,12.4,82.8,1022.12,0,0,0,0,0.025291
2021/06/08 01:17:00.002,n,241,3.6,2.88,4.32,12.4,82.6,1022.12,0,0,0,0,0.024414
2021/06/08 01:18:00.000,n,276,2.52,0.72,3.24,12.4,82.7,1022.12,0,0,0,0,0.024414
2021/06/08 01:19:00.012,n,248,1.8,1.44,2.16,12.4,82.6,1022.12,0,0,0,0,0.025291
2021/06/08 01:20:00.009,n,189,0.72,0.36,0.72,12.4,82.6,1022.12,0,0,0,0,0.027008
2021/06/08 01:21:00.006,n,175,6.84,6.12,7.56,12.4,82.8,1022.12,0,0,0,0,0.018311
2021/06/08 01:22:00.000,n,200,2.16,1.44,2.16,12.4,82.7,1022.22,0,0,0,0,0.019188
2021/06/08 01:23:00.001,n,300,2.52,2.16,3.24,12.4,83,1022.22,0,0,0,0,0.018311
2021/06/08 01:24:00.000,n,219,0.36,0.36,0.72,12.5,82.8,1022.22,0,0,0,0,0.015678
2021/06/08 01:25:00.000,n,147,1.8,1.44,1.8,12.5,82.7,1022.22,0,0,0,0,0.019188
2021/06/08 01:26:00.008,n,148,1.8,1.44,1.8,12.4,82.6,1022.22,0,0,0,0,0.020027
2021/06/08 01:27:00.006,n,141,2.52,2.16,2.88,12.4,82.6,1022.22,0,0,0,0,0.020905
2021/06/08 01:28:00.002,n,221,3.24,3.24,3.6,12.4,82.6,1022.22,0,0,0,0,0.027885
2021/06/08 01:29:00.000,n,205,1.44,0.72,2.16,12.5,83,1022.22,0,0,0,0,0.027046
2021/06/08 01:30:00.013,n,169,2.52,2.16,2.88,12.5,82.6,1022.22,0,0,0,0,0.031395
2021/06/08 01:31:00.000,n,215,2.88,1.8,3.6,12.5,82.6,1022.12,0,0,0,0,0.028763
2021/06/08 01:32:00.000,n,164,2.88,2.52,2.88,12.4,82.6,1022.12,0,0,0,0,0.027885
2021/06/08 01:33:00.000,n,171,3.24,2.88,4.32,12.4,82.3,1022.12,0,0,0,0,0.030479
2021/06/08 01:34:00.004,n,147,1.8,1.44,1.8,12.4,82.4,1022.12,0,0,0,0,0.024414
2021/06/08 01:35:00.001,n,131,1.44,0.36,2.52,12.3,82.6,1022.22,0,0,0,0,0.030479
2021/06/08 01:36:00.000,n,124,1.8,1.8,2.16,12.3,82.4,1022.22,0,0,0,0,0.023537
2021/06/08 01:37:00.011,n,171,3.24,2.52,4.32,12.3,82.5,1022.22,0,0,0,0,0.029602
2021/06/08 01:38:00.008,n,294,0.72,0,1.44,12.2,82.5,1022.22,0,0,0,0,0.026131
2021/06/08 01:39:00.006,n,93,2.88,2.52,3.6,12.2,82.9,1022.22,0,0,0,0,0.028763
2021/06/08 01:40:00.000,n,237,1.44,1.44,1.8,12.2,82.9,1022.22,0,0,0,0,0.027046
2021/06/08 01:41:00.000,n,169,1.08,0.36,1.44,12.3,82.9,1022.22,0,0,0,0,0.022659
2021/06/08 01:42:00.000,n,187,1.8,1.44,1.8,12.2,82.7,1022.22,0,0,0,0,0.025253
2021/06/08 01:43:00.000,n,143,1.44,1.44,1.8,12.2,82.7,1022.12,0,0,0,0,0.026131
2021/06/08 01:44:00.000,n,149,2.88,2.88,3.24,12.2,82.8,1022.12,0,0,0,0,0.026131
2021/06/08 01:45:00.006,n,160,4.32,3.96,4.32,12.2,82.8,1022.22,0,0,0,0,0.027046
2021/06/08 01:46:00.004,n,158,2.16,2.16,2.52,12.1,83,1022.12,0,0,0,0,0.019188
2021/06/08 01:47:00.000,n,126,1.8,1.44,1.8,12.1,83,1022.12,0,0,0,0,0.020905
2021/06/08 01:48:00.014,n,201,2.52,1.08,3.24,12.1,83.1,1022.12,0,0,0,0,0.023537
2021/06/08 01:49:00.000,n,164,4.32,3.96,5.04,12.1,83.1,1022.12,0,0,0,0,0.021782
2021/06/08 01:50:00.000,n,183,2.16,1.8,2.88,12.1,83.1,1022.12,0,0,0,0,0.024414
2021/06/08 01:51:00.000,n,145,2.52,2.52,2.88,12.1,83.1,1022.12,0,0,0,0,0.028763
2021/06/08 01:52:00.002,n,167,4.32,3.6,4.68,12.1,83.2,1022.12,0,0,0,0,0.025253
2021/06/08 01:53:00.000,n,155,2.88,2.16,3.96,12.1,83.2,1022.12,0,0,0,0,0.019188
2021/06/08 01:54:00.000,n,180,3.96,3.24,4.32,12.1,83.3,1022.12,0,0,0,0,0.021782
2021/06/08 01:55:00.010,n,149,6.84,6.48,7.2,12.1,83.2,1022.02,0,0,0,0,0.031319
2021/06/08 01:56:00.005,n,176,4.32,3.96,5.04,12,83.3,1022.02,0,0,0,0,0.02697
2021/06/08 01:57:00.003,n,183,3.6,2.88,4.68,12,83.3,1022.02,0,0,0,0,0.029602
2021/06/08 01:58:00.000,n,162,4.68,3.6,5.76,12,83.2,1022.02,0,0,0,0,0.031319
2021/06/08 01:59:00.000,n,157,4.32,3.6,5.4,12,83.2,1022.12,0,0,0,0,0.030479
2021/06/08 02:00:00.000,n,176,3.24,0.72,5.04,12,83.3,1022.02,0,0,0,0,0.028725
2021/06/08 02:01:00.000,n,154,5.4,4.68,5.76,12,83.3,1022.02,0,0,0,0,0.02697
2021/06/08 02:02:00.006,n,148,7.56,6.84,7.92,12,83.3,1022.02,0,0,0,0,0.030479
2021/06/08 02:03:00.003,n,138,2.88,1.44,3.6,12,83.3,1022.02,0,0,0,0,0.027847
2021/06/08 02:04:00.000,n,163,4.32,4.32,4.68,12,83.3,1022.02,0,0,0,0,0.029602
2021/06/08 02:05:00.013,n,101,0.72,0.36,1.08,12,83.3,1022.02,0,0,0,0,0.022621
2021/06/08 02:06:00.012,n,136,6.12,5.04,6.84,11.9,83.3,1022.02,0,0,0,0,0.02697
2021/06/08 02:07:00.000,n,158,5.04,3.96,6.48,11.9,83.4,1022.02,0,0,0,0,0.028725
2021/06/08 02:08:00.000,n,122,5.4,4.32,6.12,11.9,83.4,1022.02,0,0,0,0,0.028725
2021/06/08 02:09:00.002,n,162,4.68,1.44,6.12,11.9,83.4,1021.92,0,0,0,0,0.028725
2021/06/08 02:10:00.001,n,151,5.4,4.32,6.12,11.9,83.5,1021.92,0,0,0,0,0.026131
2021/06/08 02:11:00.000,n,115,4.32,2.88,5.76,11.9,83.5,1021.92,0,0,0,0,0.028725
2021/06/08 02:12:00.000,n,169,5.4,4.32,5.76,11.9,83.5,1021.92,0,0,0,0,0.02697
2021/06/08 02:13:00.008,n,146,5.76,5.04,6.12,11.9,83.5,1021.92,0,0,0,0,0.021782
2021/06/08 02:14:00.005,n,185,3.6,3.24,3.96,11.8,83.5,1021.92,0,0,0,0,0.02697
2021/06/08 02:15:00.002,n,181,4.68,4.68,5.4,11.8,83.6,1021.82,0,0,0,0,0.022621
2021/06/08 02:16:00.001,n,145,2.52,2.16,2.88,11.8,83.6,1021.82,0,0,0,0,0.021782
2021/06/08 02:17:00.000,n,128,2.52,1.8,2.52,11.8,83.7,1021.82,0,0,0,0,0.025253
2021/06/08 02:18:00.000,n,184,5.04,4.68,5.4,11.8,83.8,1021.82,0,0,0,0,0.020905
2021/06/08 02:19:00.000,n,128,5.04,4.68,5.4,11.8,83.8,1021.82,0,0,0,0,0.021782
2021/06/08 02:20:00.005,n,144,1.44,0.36,1.8,11.7,83.7,1021.82,0,0,0,0,0.027885
2021/06/08 02:21:00.004,n,143,2.52,0.72,3.6,11.7,83.8,1021.82,0,0,0,0,0.035744
2021/06/08 02:22:00.001,n,143,3.96,3.6,5.04,11.7,83.8,1021.72,0,0,0,0,0.027885
2021/06/08 02:23:00.000,n,166,6.12,5.76,6.48,11.7,83.8,1021.72,0,0,0,0,0.033989
2021/06/08 02:24:00.011,n,178,3.96,3.6,4.32,11.7,83.8,1021.72,0,0,0,0,0.032234
2021/06/08 02:25:00.000,n,170,1.44,0.72,1.8,11.7,83.8,1021.72,0,0,0,0,0.03315
2021/06/08 02:26:00.000,n,243,2.16,1.44,2.88,11.7,83.8,1021.62,0,0,0,0,0.031395
2021/06/08 02:27:00.003,n,128,3.6,3.6,3.96,11.6,83.8,1021.62,0,0,0,0,0.033989
2021/06/08 02:28:00.000,n,160,3.24,2.52,3.96,11.6,83.9,1021.62,0,0,0,0,0.028801
2021/06/08 02:29:00.000,n,126,3.24,2.52,3.6,11.6,83.8,1021.62,0,0,0,0,0.024414
2021/06/08 02:30:00.010,n,150,3.6,3.24,3.96,11.6,83.8,1021.62,0,0,0,0,0.025291
2021/06/08 02:31:00.009,n,170,2.88,2.16,3.6,11.6,83.9,1021.52,0,0,0,0,0.027046
2021/06/08 02:32:00.007,n,142,2.52,1.8,2.52,11.6,83.9,1021.52,0,0,0,0,0.02964
2021/06/08 02:33:00.004,n,148,3.96,2.88,4.32,11.6,83.8,1021.52,0,0,0,0,0.027046
2021/06/08 02:34:00.002,n,151,2.88,2.52,3.24,11.6,83.8,1021.52,0,0,0,0,0.030518
2021/06/08 02:35:00.000,n,158,4.68,3.24,5.76,11.6,83.8,1021.42,0,0,0,0,0.031395
2021/06/08 02:36:00.000,n,183,5.4,4.68,5.76,11.6,83.8,1021.42,0,0,0,0,0.030518
2021/06/08 02:37:00.000,n,154,7.92,7.2,8.28,11.6,83.8,1021.42,0,0,0,0,0.026169
2021/06/08 02:38:00.006,n,167,8.28,7.2,9,11.5,83.8,1021.42,0,0,0,0,0.028801
2021/06/08 02:39:00.003,n,143,5.04,5.04,5.4,11.5,83.9,1021.42,0,0,0,0,0.023537
2021/06/08 02:40:00.002,n,141,5.04,3.24,7.56,11.5,83.9,1021.42,0,0,0,0,0.02182
2021/06/08 02:41:00.000,n,143,5.4,4.68,5.76,11.5,83.9,1021.42,0,0,0,0,0.02964
2021/06/08 02:42:00.013,n,168,3.96,3.24,5.04,11.5,83.9,1021.32,0,0,0,0,0.027046
2021/06/08 02:43:00.000,n,158,4.32,3.6,5.04,11.5,84,1021.32,0,0,0,0,0.025291
2021/06/08 02:44:00.000,n,150,5.4,5.04,5.76,11.5,84,1021.32,0,0,0,0,0.023537
2021/06/08 02:45:00.005,n,162,6.12,4.68,7.2,11.5,84,1021.32,0,0,0,0,0.026169
2021/06/08 02:46:00.002,n,148,5.04,4.32,5.4,11.5,84.1,1021.32,0,0,0,0,0.02182
2021/06/08 02:47:00.000,n,175,3.96,0.72,5.76,11.5,84.1,1021.32,0,0,0,0,0.025291
2021/06/08 02:48:00.000,n,176,4.68,4.32,4.68,11.5,84.2,1021.32,0,0,0,0,0.023537
2021/06/08 02:49:00.010,n,201,2.16,1.44,2.88,11.5,84.2,1021.32,0,0,0,0,0.023537
2021/06/08 02:50:00.007,n,172,5.04,4.32,5.76,11.5,84.2,1021.32,0,0,0,0,0.025291
2021/06/08 02:51:00.004,n,161,4.68,3.6,5.76,11.5,84.3,1021.32,0,0,0,0,0.020065
2021/06/08 02:52:00.002,n,189,4.32,3.24,5.04,11.5,84.3,1021.32,0,0,0,0,0.016594
2021/06/08 02:53:00.000,n,150,2.16,0.72,3.24,11.5,84.3,1021.32,0,0,0,0,0.022659
2021/06/08 02:54:00.000,n,186,3.24,2.88,3.96,11.5,84.3,1021.22,0,0,0,0,0.023537
2021/06/08 02:55:00.000,n,139,1.08,0.36,1.8,11.5,84.3,1021.22,0,0,0,0,0.023537
2021/06/08 02:56:00.008,n,284,1.44,1.08,1.8,11.6,84.2,1021.22,0,0,0,0,0.020943
2021/06/08 02:57:00.005,n,219,1.44,1.08,1.8,11.6,84.1,1021.22,0,0,0,0,0.020943
2021/06/08 02:58:00.002,n,40,0.36,0.36,0.72,11.5,84,1021.22,0,0,0,0,0.022659
2021/06/08 02:59:00.000,n,194,1.08,0.72,1.44,11.5,84.1,1021.22,0,0,0,0,0.022659
2021/06/08 03:00:00.016,n,183,4.68,4.32,5.4,11.5,84.2,1021.22,0,0,0,0,0.02182
2021/06/08 03:01:00.000,n,168,2.88,2.16,3.6,11.5,84.2,1021.22,0,0,0,0,0.018311
2021/06/08 03:02:00.000,n,207,1.8,0.72,2.52,11.6,84.2,1021.22,0,0,0,0,0.018311
2021/06/08 03:03:00.000,n,142,2.88,2.52,3.6,11.6,84.1,1021.22,0,0,0,0,0.020943
2021/06/08 03:04:00.005,n,121,1.8,1.44,2.16,11.6,84.1,1021.22,0,0,0,0,0.018311
2021/06/08 03:05:00.003,n,271,0.72,0.36,1.08,11.6,84.2,1021.22,0,0,0,0,0.026131
2021/06/08 03:06:00.000,n,214,1.44,1.08,1.44,11.6,84.1,1021.22,0,0,0,0,0.031395
2021/06/08 03:07:00.000,n,136,2.52,2.52,2.88,11.6,84,1021.22,0,0,0,0,0.026131
2021/06/08 03:08:00.010,n,181,3.24,2.52,3.6,11.6,84,1021.22,0,0,0,0,0.026131
2021/06/08 03:09:00.007,n,154,3.6,3.24,3.96,11.6,84,1021.22,0,0,0,0,0.027008
2021/06/08 03:10:00.000,n,139,4.32,3.6,4.68,11.6,84,1021.22,0,0,0,0,0.022659
2021/06/08 03:11:00.000,n,177,4.68,3.96,5.04,11.6,84,1021.22,0,0,0,0,0.023537
2021/06/08 03:12:00.000,n,186,5.04,4.68,6.12,11.6,84,1021.22,0,0,0,0,0.027885
2021/06/08 03:13:00.000,n,184,3.96,3.24,4.32,11.6,84,1021.22,0,0,0,0,0.027008
2021/06/08 03:14:00.008,n,132,3.6,2.52,4.32,11.6,83.9,1021.22,0,0,0,0,0.029602
2021/06/08 03:15:00.005,n,12,2.16,1.08,3.6,11.6,83.9,1021.32,0,0,0,0,0.027885
2021/06/08 03:16:00.004,n,277,2.16,1.44,2.16,11.6,84,1021.32,0,0,0,0,0.028763
2021/06/08 03:17:00.000,n,120,1.08,0.72,1.8,11.6,84,1021.32,0,0,0,0,0.027008
2021/06/08 03:18:00.014,n,192,0.72,0.36,1.44,11.6,83.9,1021.32,0,0,0,0,0.027885
2021/06/08 03:19:00.000,n,189,1.08,0,1.44,11.6,83.9,1021.22,0,0,0,0,0.029602
2021/06/08 03:20:00.000,n,147,2.16,2.16,2.52,11.6,83.9,1021.22,0,0,0,0,0.026131
2021/06/08 03:21:00.000,n,137,1.44,1.08,1.44,11.6,83.8,1021.22,0,0,0,0,0.027885
2021/06/08 03:22:00.003,n,139,1.44,1.44,1.8,11.5,83.8,1021.22,0,0,0,0,0.027008
2021/06/08 03:23:00.001,n,134,2.16,1.8,2.52,11.5,83.8,1021.22,0,0,0,0,0.026131
2021/06/08 03:24:00.000,n,184,0.72,0.72,1.08,11.5,83.8,1021.22,0,0,0,0,0.030479
2021/06/08 03:25:00.010,n,162,2.16,2.16,2.52,11.5,83.8,1021.22,0,0,0,0,0.027008
2021/06/08 03:26:00.008,n,138,1.44,1.08,1.44,11.5,83.8,1021.22,0,0,0,0,0.023537
2021/06/08 03:27:00.005,n,166,1.8,1.44,2.16,11.5,83.8,1021.22,0,0,0,0,0.028763
2021/06/08 03:28:00.000,n,336,1.44,1.08,1.8,11.5,83.9,1021.22,0,0,0,0,0.026131
2021/06/08 03:29:00.000,n,257,0.72,0.36,1.44,11.5,83.8,1021.22,0,0,0,0,0.025253
2021/06/08 03:30:00.000,n,162,1.44,1.44,1.8,11.5,83.9,1021.22,0,0,0,0,0.025253
2021/06/08 03:31:00.000,n,172,0.72,0.36,2.16,11.5,84,1021.22,0,0,0,0,0.023537
2021/06/08 03:32:00.008,n,122,2.52,2.16,2.88,11.5,83.9,1021.22,0,0,0,0,0.027885
2021/06/08 03:33:00.007,n,163,4.32,3.6,4.68,11.5,83.9,1021.22,0,0,0,0,0.023537
2021/06/08 03:34:00.005,n,160,3.24,3.24,3.96,11.5,83.9,1021.22,0,0,0,0,0.027008
2021/06/08 03:35:00.002,n,131,3.6,3.24,4.68,11.5,83.8,1021.22,0,0,0,0,0.027008
2021/06/08 03:36:00.000,n,157,5.04,4.68,5.4,11.5,83.8,1021.22,0,0,0,0,0.028763
2021/06/08 03:37:00.000,n,147,3.96,3.6,3.96,11.4,83.8,1021.22,0,0,0,0,0.027885
2021/06/08 03:38:00.000,n,145,3.6,3.6,4.32,11.4,83.8,1021.12,0,0,0,0,0.025253
2021/06/08 03:39:00.000,n,166,5.04,3.6,6.48,11.4,83.8,1021.12,0,0,0,0,0.026131
2021/06/08 03:40:00.005,n,174,6.12,4.68,6.84,11.4,83.8,1021.12,0,0,0,0,0.023537
2021/06/08 03:41:00.002,n,164,5.4,4.32,6.48,11.4,83.8,1021.12,0,0,0,0,0.025253
2021/06/08 03:42:00.000,n,187,2.88,2.16,3.96,11.4,83.8,1021.12,0,0,0,0,0.028763
2021/06/08 03:43:00.012,n,163,3.6,1.44,4.68,11.4,83.8,1021.12,0,0,0,0,0.027885
2021/06/08 03:44:00.009,n,179,7.56,6.48,8.64,11.4,83.8,1021.12,0,0,0,0,0.026131
2021/06/08 03:45:00.006,n,172,7.2,6.48,7.56,11.4,83.8,1021.12,0,0,0,0,0.026131
2021/06/08 03:46:00.000,n,176,3.96,3.24,5.04,11.4,83.8,1021.02,0,0,0,0,0.028763
2021/06/08 03:47:00.000,n,144,3.24,1.8,3.6,11.4,83.8,1021.02,0,0,0,0,0.026131
2021/06/08 03:48:00.000,n,157,5.04,2.88,7.2,11.4,83.7,1021.02,0,0,0,0,0.022659
2021/06/08 03:49:00.000,n,166,5.4,5.04,5.76,11.4,83.7,1021.02,0,0,0,0,0.024414
2021/06/08 03:50:00.008,n,166,2.88,1.44,3.96,11.4,83.7,1021.02,0,0,0,0,0.023537
2021/06/08 03:51:00.005,n,164,5.76,5.4,6.48,11.4,83.7,1021.12,0,0,0,0,0.022659
2021/06/08 03:52:00.002,n,156,4.32,2.16,6.12,11.4,83.7,1021.12,0,0,0,0,0.024414
2021/06/08 03:53:00.000,n,178,4.68,3.24,5.04,11.4,83.6,1021.12,0,0,0,0,0.020905
2021/06/08 03:54:00.013,n,191,4.32,3.96,4.68,11.4,83.7,1021.12,0,0,0,0,0.021782
2021/06/08 03:55:00.000,n,181,2.52,1.8,2.88,11.4,83.6,1021.12,0,0,0,0,0.021782
2021/06/08 03:56:00.000,n,197,3.96,3.24,4.68,11.4,83.6,1021.12,0,0,0,0,0.028763
2021/06/08 03:57:00.004,n,132,2.16,0.72,2.88,11.4,83.7,1021.12,0,0,0,0,0.024414
2021/06/08 03:58:00.002,n,149,3.24,2.88,3.6,11.4,83.6,1021.12,0,0,0,0,0.027008
2021/06/08 03:59:00.000,n,162,1.8,1.44,2.16,11.4,83.6,1021.12,0,0,0,0,0.022659
2021/06/08 04:00:00.000,n,136,1.08,0.36,1.8,11.4,83.5,1021.12,0,0,0,0,0.023537
2021/06/08 04:01:00.009,n,170,3.6,1.8,4.32,11.4,83.6,1021.12,0,0,0,0,0.025253
2021/06/08 04:02:00.006,n,313,0.72,0,1.44,11.4,83.6,1021.12,0,0,0,0,0.027885
2021/06/08 04:03:00.004,n,164,0.36,0.36,0.36,11.4,83.6,1021.12,0,0,0,0,0.025253
2021/06/08 04:04:00.002,n,170,0.36,0.36,0.36,11.4,83.6,1021.12,0,0,0,0,0.021782
2021/06/08 04:05:00.000,n,217,2.52,2.16,2.88,11.4,83.5,1021.02,0,0,0,0,0.019188
2021/06/08 04:06:00.000,n,146,2.16,1.8,2.88,11.4,83.6,1021.02,0,0,0,0,0.023537
2021/06/08 04:07:00.000,n,207,1.8,0.72,3.24,11.4,83.5,1021.02,0,0,0,0,0.024414
2021/06/08 04:08:00.007,n,149,1.44,1.08,1.8,11.4,83.5,1020.92,0,0,0,0,0.024414
2021/06/08 04:09:00.004,n,180,2.52,1.8,2.88,11.4,83.4,1020.92,0,0,0,0,0.025253
2021/06/08 04:10:00.001,n,116,1.44,0.72,1.8,11.4,83.4,1020.92,0,0,0,0,0.023537
2021/06/08 04:11:00.000,n,212,1.8,1.08,2.52,11.4,83.5,1020.92,0,0,0,0,0.023537
2021/06/08 04:12:00.011,n,123,1.44,1.08,1.44,11.4,83.4,1020.92,0,0,0,0,0.018272
2021/06/08 04:13:00.000,n,192,1.44,1.08,1.8,11.4,83.3,1020.92,0,0,0,0,0.02964
2021/06/08 04:14:00.000,n,156,1.8,0.72,2.88,11.4,83.3,1020.92,0,0,0,0,0.034866
2021/06/08 04:15:00.003,n,249,2.16,1.08,2.52,11.4,83.3,1020.82,0,0,0,0,0.034866
2021/06/08 04:16:00.000,n,159,2.88,1.08,3.24,11.4,83.3,1020.82,0,0,0,0,0.032234
2021/06/08 04:17:00.000,n,166,1.44,1.44,1.8,11.3,83.2,1020.82,0,0,0,0,0.033112
2021/06/08 04:18:00.000,n,165,4.32,3.6,5.04,11.3,83.2,1020.82,0,0,0,0,0.030518
2021/06/08 04:19:00.009,n,149,5.04,4.68,5.76,11.3,83.2,1020.82,0,0,0,0,0.02964
2021/06/08 04:20:00.006,n,152,3.96,2.88,4.68,11.3,83.3,1020.72,0,0,0,0,0.030518
2021/06/08 04:21:00.002,n,165,5.04,4.68,5.76,11.3,83.1,1020.72,0,0,0,0,0.033112
2021/06/08 04:22:00.000,n,149,3.96,2.88,4.68,11.3,83,1020.72,0,0,0,0,0.032234
2021/06/08 04:23:00.000,n,150,3.6,1.8,4.68,11.2,83,1020.72,0,0,0,0,0.02964
2021/06/08 04:24:00.000,n,144,3.24,3.24,3.6,11.2,82.9,1020.72,0,0,0,0,0.027008
2021/06/08 04:25:00.000,n,184,5.4,5.04,6.12,11.2,83,1020.72,0,0,0,0,0.028763
2021/06/08 04:26:00.004,n,146,2.52,2.16,2.88,11.2,83.1,1020.72,0,0,0,0,0.027008
2021/06/08 04:27:00.001,n,145,5.04,4.68,5.4,11.2,83.1,1020.72,0,0,0,0,0.028763
2021/06/08 04:28:00.000,n,174,4.68,3.6,5.4,11.1,83.2,1020.62,0,0,0,0,0.027008
2021/06/08 04:29:00.012,n,168,5.4,4.68,5.76,11.1,83.2,1020.62,0,0,0,0,0.033112
2021/06/08 04:30:00.010,n,172,2.52,2.16,3.96,11.1,83.2,1020.62,0,0,0,0,0.033989
2021/06/08 04:31:00.000,n,164,5.4,5.4,5.76,11.1,83.4,1020.62,0,0,0,0,0.030518
2021/06/08 04:32:00.003,n,155,3.24,2.88,3.6,11.1,83.4,1020.62,0,0,0,0,0.027885
2021/06/08 04:33:00.000,n,142,3.96,3.6,4.32,11.1,83.5,1020.62,0,0,0,0,0.028763
2021/06/08 04:34:00.000,n,166,2.16,2.16,2.52,11.1,83.5,1020.62,0,0,0,0,0.02964
2021/06/08 04:35:00.000,n,182,1.44,1.08,2.52,11.1,83.5,1020.62,0,0,0,0,0.030518
2021/06/08 04:36:00.008,n,191,1.44,1.44,1.8,11.1,83.5,1020.62,0,0,0,0,0.028763
2021/06/08 04:37:00.005,n,204,0.36,0.36,0.72,11.1,83.4,1020.62,0,0,0,0,0.026169
2021/06/08 04:38:00.002,n,231,1.08,0.72,1.8,11.1,83.4,1020.62,0,0,0,0,0.023537
2021/06/08 04:39:00.000,n,280,1.8,1.44,2.16,11.1,83.4,1020.62,0,0,0,0,0.027008
2021/06/08 04:40:00.000,n,265,2.16,1.8,2.16,11.1,83.6,1020.62,0,0,0,0,0.027008
2021/06/08 04:41:00.000,n,248,2.16,1.8,2.52,11.1,83.6,1020.62,0,0,0,0,0.032234
2021/06/08 04:42:00.000,n,243,0.72,0.36,0.72,11.1,83.6,1020.62,0,0,0,0,0.026169
2021/06/08 04:43:00.004,n,276,1.08,0.36,1.44,11.1,83.6,1020.62,0,0,0,0,0.027008
2021/06/08 04:44:00.001,n,178,0.36,0,0.36,11.1,83.6,1020.62,0,0,0,0,0.025253
2021/06/08 04:45:00.000,n,109,1.8,1.44,1.8,11.1,83.6,1020.62,0,0,0,0,0.031395
2021/06/08 04:46:00.000,n,151,3.24,2.88,3.96,11.1,83.7,1020.62,0,0,0,0,0.02964
2021/06/08 04:47:00.011,n,162,0.72,0.36,1.08,11.1,83.5,1020.52,0,0,0,0,0.027008
2021/06/08 04:48:00.010,n,153,1.44,1.08,1.44,11.1,83.5,1020.52,0,0,0,0,0.025253
2021/06/08 04:49:00.000,n,144,1.8,1.8,2.16,11.1,83.6,1020.52,0,0,0,0,0.026169
2021/06/08 04:50:00.000,n,139,1.08,0.72,1.44,11.1,83.6,1020.52,0,0,0,0,0.032234
2021/06/08 04:51:00.000,n,136,1.8,1.44,2.16,11.1,83.6,1020.52,0,0,0,0,0.026169
2021/06/08 04:52:00.000,n,56,1.44,1.08,1.8,11.1,83.6,1020.52,0,0,0,0,0.031395
2021/06/08 04:53:00.000,n,247,1.08,0.72,1.08,11,83.6,1020.52,0,0,0,0,0.030518
2021/06/08 04:54:00.009,n,231,1.8,1.44,2.52,11,83.7,1020.52,0,0,0,0,0.02964
2021/06/08 04:55:00.005,n,290,1.8,1.8,2.16,11.1,83.7,1020.52,0,0,0,0,0.028763